Hoquiam, WA
on Saturday, December 8, 2012

Saturday
Previous Day Next Day
Daily Summary
 ActualAverageRecord
Temperature
Mean Temperature °F 42°F  
Max Temperature 45°F 47°F 55°F (1957)
Min Temperature 37°F 37°F 9°F (1972)
Degree Days
Heating Degree Days 24 23  
Month to date heating degree days 182  
Cooling Degree Days 0 0  
Month to date cooling degree days 0  
Year to date cooling degree days 23  
Moisture
Dew Point 38°F   
Average Humidity 92    
Maximum Humidity 100    
Minimum Humidity 76    
Precipitation
Precipitation 0.12 in 0.32 in 2.18 in (1956)
Month to date precipitation 2.70  
Year to date precipitation 60.29  
Wind
Wind Speed 2 mph   
Max Wind Speed 8 mph   
Max Gust Speed mph   
Visibility 10 miles   
Events Rain   

Key: T is trace of precipitation, MM is missing value
Source: NWS Daily Summary
Time(PST)TemperatureDew PointHumidity Pressure Visibility Wind DirectionWind SpeedGust SpeedPrecipitationEvents Conditions
12:01 AM 39.2°F 37.4°F 93% 30.20 in 9.0 miles Calm Calm - 0.01 in Rain Light Rain
12:53 AM 39.0°F 37.0°F 93% 30.20 in 10.0 miles ENE 3.5 mph - 0.01 in   Mostly Cloudy
1:19 AM 39.2°F 37.4°F 93% 30.20 in 6.0 miles Calm Calm - 0.01 in Rain Light Rain
1:30 AM 39.2°F 37.4°F 93% 30.20 in 10.0 miles NE 4.6 mph - 0.01 in   Overcast
1:53 AM 39.0°F 37.9°F 96% 30.21 in 10.0 miles East 3.5 mph - 0.01 in   Overcast
2:19 AM 39.2°F 37.4°F 93% 30.20 in 6.0 miles Variable 3.5 mph - 0.01 in Rain Light Rain
2:26 AM 39.2°F 37.4°F 93% 30.20 in 6.0 miles East 3.5 mph - 0.02 in Rain Light Rain
2:44 AM 37.4°F 35.6°F 93% 30.20 in 10.0 miles East 4.6 mph - 0.02 in   Partly Cloudy
2:53 AM 37.9°F 37.0°F 97% 30.21 in 10.0 miles ENE 3.5 mph - 0.02 in   Partly Cloudy
3:53 AM 39.0°F 37.9°F 96% 30.21 in 10.0 miles Calm Calm - 0.00 in   Overcast
4:05 AM 37.4°F 37.4°F 100% 30.19 in 8.0 miles Calm Calm - N/A   Overcast
4:53 AM 37.9°F 37.0°F 97% 30.21 in 9.0 miles Calm Calm - 0.01 in   Overcast
5:53 AM 37.0°F 37.0°F 100% 30.22 in 10.0 miles Calm Calm - 0.01 in   Overcast
6:53 AM 37.9°F 37.0°F 97% 30.23 in 10.0 miles Calm Calm - N/A   Overcast
7:53 AM 37.9°F 37.0°F 97% 30.23 in 10.0 miles ENE 3.5 mph - N/A   Overcast
8:43 AM 39.2°F 37.4°F 93% 30.24 in 10.0 miles Calm Calm - 0.00 in   Overcast
8:53 AM 39.9°F 37.9°F 93% 30.25 in 10.0 miles Calm Calm - 0.00 in   Overcast
9:14 AM 41.0°F 37.4°F 87% 30.25 in 10.0 miles Calm Calm - N/A   Overcast
9:53 AM 42.1°F 39.0°F 89% 30.28 in 10.0 miles Calm Calm - 0.00 in   Overcast
10:53 AM 43.0°F 39.9°F 89% 30.28 in 10.0 miles Calm Calm - N/A   Overcast
11:53 AM 44.1°F 39.9°F 85% 30.27 in 10.0 miles Calm Calm - N/A   Scattered Clouds
12:53 PM 45.0°F 39.9°F 82% 30.27 in 10.0 miles SW 5.8 mph - N/A   Mostly Cloudy
1:53 PM 45.0°F 39.9°F 82% 30.27 in 10.0 miles SW 8.1 mph - N/A   Mostly Cloudy
2:44 PM 42.8°F 37.4°F 81% 30.26 in 10.0 miles North 6.9 mph - 0.01 in   Overcast
2:53 PM 43.0°F 36.0°F 76% 30.28 in 10.0 miles NNE 4.6 mph - 0.01 in   Overcast
3:53 PM 42.1°F 37.9°F 85% 30.30 in 10.0 miles North 6.9 mph - 0.01 in Rain Light Rain
4:53 PM 41.0°F 37.9°F 89% 30.30 in 10.0 miles East 4.6 mph - 0.01 in   Overcast
5:53 PM 41.0°F 39.0°F 93% 30.31 in 10.0 miles NE 3.5 mph - 0.00 in   Overcast
6:53 PM 39.9°F 39.0°F 97% 30.32 in 10.0 miles NE 3.5 mph - N/A   Overcast
7:53 PM 39.9°F 39.0°F 97% 30.33 in 10.0 miles Calm Calm - N/A   Overcast
8:53 PM 39.9°F 39.0°F 97% 30.34 in 10.0 miles ENE 5.8 mph - 0.01 in Rain Light Rain
9:53 PM 39.9°F 39.0°F 97% 30.34 in 10.0 miles ENE 5.8 mph - 0.01 in Rain Light Rain
10:53 PM 39.9°F 39.0°F 97% 30.35 in 10.0 miles ENE 6.9 mph - 0.00 in Rain Light Rain
11:42 PM 39.2°F 37.4°F 93% 30.34 in 10.0 miles ENE 6.9 mph - 0.01 in   Overcast
11:53 PM 39.9°F 37.9°F 93% 30.35 in 10.0 miles ENE 5.8 mph - 0.01 in   Overcast
Moon Phase
Dec. 08 Dec. 13 Dec. 20 Dec. 28 Jan. 04
Sunrise:07:49 AM (PST) Moon Rise:02:03 AM (PST)12/8
Sunset:04:26 PM (PST) Moon Set:01:14 PM (PST)12/8

Copyright © 2014 The Weather Underground, Inc.